(Global) Earthquake at 2022-09-29 22:59:04 in SOUTHEAST OF LOYALTY ISLANDS Latitude -22.93 Longitude 172.09 , at a depth of 10 km Magnitude 5.6
Global alerts
Previous warnings
Time Mag Region Lat Lng Adancime Sursa Raport
2022-09-29 22:59:04 5.6 SOUTHEAST OF LOYALTY ISLANDS -22.93 172.09 10 EMSC Detalii
2022-09-29 22:22:37 5.6 MYANMAR 23.11 95.00 144 EMSC Detalii
2022-09-29 15:32:32 5.7 REYKJANES RIDGE 53.70 -35.23 10 EMSC Detalii
2022-09-29 03:03:24 6.5 EAST OF SOUTH SANDWICH ISLANDS -60.93 -20.06 2 EMSC Detalii
2022-09-26 10:06:54 5.7 REYKJANES RIDGE 53.83 -35.10 10 EMSC Detalii
2022-09-23 22:53:30 6.0 OFF COAST OF LOS LAGOS, CHILE -41.30 -75.45 80 EMSC Detalii
2022-09-23 20:53:02 6.1 NORTHERN SUMATRA, INDONESIA 3.79 96.10 68 EMSC Detalii
2022-09-22 09:07:04 5.6 COOK STRAIT, NEW ZEALAND -40.83 174.24 98 EMSC Detalii
2022-09-22 06:16:17 6.5 MICHOACAN, MEXICO 18.60 -102.77 80 EMSC Detalii
2022-09-21 09:30:49 5.6 EASTERN NEW GUINEA REG., P.N.G. -5.56 146.90 200 EMSC Detalii
2022-09-20 18:23:44 6.1 KOMANDORSKIYE OSTROVA REGION 55.63 166.32 10 EMSC Detalii
2022-09-20 08:17:14 5.6 MICHOACAN, MEXICO 18.70 -103.35 10 EMSC Detalii
2022-09-19 18:05:16 7.5 MICHOACAN, MEXICO 18.73 -103.06 80 EMSC Detalii
2022-09-19 17:53:50 5.6 MID-INDIAN RIDGE -36.76 78.52 33 EMSC Detalii
2022-09-19 02:07:43 5.6 TAIWAN 23.47 121.41 0 EMSC Detalii
2022-09-18 09:41:47 5.7 SANTA CRUZ ISLANDS REGION -10.65 164.22 20 EMSC Detalii
2022-09-18 09:39:56 5.6 TAIWAN 23.23 121.38 8 EMSC Detalii
2022-09-18 08:10:03 5.6 RYUKYU ISLANDS, JAPAN 26.33 126.01 30 EMSC Detalii
2022-09-18 06:44:15 6.6 TAIWAN 23.21 121.29 2 EMSC Detalii
2022-09-18 05:19:22 5.7 TAIWAN 23.43 121.25 25 EMSC Detalii
2022-09-17 13:41:18 6.5 TAIWAN 23.14 121.26 1 EMSC Detalii
2022-09-14 11:04:07 6.9 SOUTHEAST OF LOYALTY ISLANDS -21.17 170.19 135 EMSC Detalii
2022-09-14 05:08:06 5.8 SAMOA ISLANDS REGION -16.91 -168.75 8 EMSC Detalii
2022-09-12 08:14:45 5.6 PHILIPPINE ISLANDS REGION 6.14 127.61 44 EMSC Detalii
2022-09-11 09:06:52 5.6 FIJI REGION -20.92 -179.00 644 EMSC Detalii
2022-09-10 23:46:51 7.7 EASTERN NEW GUINEA REG., P.N.G. -6.38 146.67 10 EMSC Detalii
2022-09-10 23:24:00 5.7 KEP. MENTAWAI REGION, INDONESIA -1.34 98.60 10 EMSC Detalii
2022-09-10 23:10:47 6.1 KEP. MENTAWAI REGION, INDONESIA -1.05 98.76 40 EMSC Detalii
2022-09-10 11:14:33 5.9 SOUTH SANDWICH ISLANDS REGION -58.85 -25.37 10 EMSC Detalii
2022-09-10 00:05:18 6.2 PAPUA, INDONESIA -2.21 138.11 60 EMSC Detalii
Regional Alerts
Local previous warnings
Time Mag Region Lat Lng Adancime Details
2022-09-27 14:08:34 UTC Mw 5.3 EASTERN TURKEY 40.72 42.89 10 f -
2022-02-13 18:25:56 UTC Mw 5.4 ARMENIA 41.14 43.99 10 f -
2021-11-19 12:40:53 UTC Mw 5.2 EASTERN TURKEY 39.81 41.92 5 f -
2019-09-26 10:59:25 UTC Mw 5.7 WESTERN TURKEY 40.87 28.19 7 f -
2018-10-28 00:38:10 UTC Mw 5.5 ROMANIA 45.60 26.40 151 f -
2017-05-11 17:58:01 UTC mb 5.0 EASTERN TURKEY 40.07 40.71 3 f -
2016-12-27 23:20:56 UTC Mw 5.6 ROMANIA 45.72 26.61 91 f -
2016-10-15 08:18:33 UTC Mw 5.1 BLACK SEA 42.20 30.69 10 -
2016-09-23 23:11:20 UTC Mw 5.7 ROMANIA 45.71 26.62 92 f -
2014-11-22 19:14:17 UTC Mw 5.6 ROMANIA 45.87 27.16 39 f -
2013-10-06 01:37:21 UTC Mw 5.3 ROMANIA 45.64 26.69 134 -
2013-05-28 00:09:52 UTC mb 5.2 GEORGIA (SAK'ART'VELO) 43.22 41.58 2 -
2012-12-25 22:44:32 UTC Mw 5.4 BLACK SEA, OFFSHORE GEORGIA 42.54 40.94 2 -
2012-12-23 13:31:40 UTC Mw 5.7 BLACK SEA, OFFSHORE GEORGIA 42.58 40.98 10 -
2012-06-07 20:54:26 UTC Mw 5.1 WESTERN TURKEY 40.85 27.92 14 f -
2011-09-22 03:22:36 UTC Mw 5.5 EASTERN TURKEY 39.79 38.84 5 -
2011-07-25 17:57:21 UTC Mw 5.0 WESTERN TURKEY 40.80 27.75 16 f -
2011-01-19 09:17:49 UTC mb 5.3 GEORGIA (SAK'ART'VELO) 42.01 42.60 2 -
2010-08-12 02:23:04 UTC Mw 4.5 WESTERN TURKEY 39.66 27.61 2 -
2009-09-07 22:41:36 UTC Mw 5.9 GEORGIA (SAK'ART'VELO) 42.66 43.42 10 -
2009-04-25 17:18:48 UTC mb 5.3 ROMANIA 45.70 26.63 96 -
2008-05-07 08:00:21 UTC mb 5.0 UKRAINE 45.36 30.88 10 -
2006-02-06 04:08:00 UTC mb 5.0 GEORGIA (SAK'ART'VELO) 42.64 43.52 10 -
2005-12-13 12:14:44 UTC mb 5.0 ROMANIA 45.78 26.79 144 -
2005-06-18 15:16:40 UTC mb 5.0 ROMANIA 45.79 26.91 135 -
2005-05-14 01:53:20 UTC mb 5.1 ROMANIA 45.66 26.47 144 -
2004-10-27 20:34:32 UTC Mw 6.0 ROMANIA 45.83 26.77 76 -
2004-10-03 09:02:01 UTC mb 5.0 UKRAINE-ROMANIA BORDER REGION 45.16 29.09 2 -

Live Video Mangalia

Very Low Warning! (global)

Event report
2022-09-29 22:59:04 magnitude 5.6

Detalii (EMSC)

Very Low Warning! (local)

Weather data
Station Absolute Pressure (hPa) Int Temperature (C) Int Moisture (%) Ext Temperature (C) Ext Moisture (%) Wind speed (km / h) Wind Direction (degrees) Rainfall (mm)
Eforie AbsP InTmC InH% OTmpC OH% WKmh WDir TRNmm
Water level data - BLACK SEA

Mangalia

Denumire Valoare
Time 21 Jun 2016 07:32:06
Lev RAD(m) -7.69
Forecast30 (m) -7.7
Forecast300 (m) -7.7
Rms (m) 0.02
Alert Signal (m) 0
Alert (-) 0
Battery (V) 13.14
Panel (V) -7.7
Sensor Temp (C) 35.9
Temperature (C) 40.2

View Raw Data »

View Raw Plots »

Constanta

Name Value
Time 21 Jun 2016 07:32:06
Lev RAD(m) -7.69
Forecast30 (m) -7.7
Forecast300 (m) -7.7
Rms (m) 0.02
Alert Signal (m) 0
Alert (-) 0
Battery (V) 13.14
Panel (V) -7.7
Sensor Temp (C) 35.9
Temperature (C) 40.2

View Raw Data »

View Raw Plots »

View Plot »

Sulina

Name Value
Time 21 Jun 2016 07:32:06
Lev RAD(m) -7.69
Forecast30 (m) -7.7
Forecast300 (m) -7.7
Rms (m) 0.02
Alert Signal (m) 0
Alert (-) 0
Battery (V) 13.14
Panel (V) -7.7
Sensor Temp (C) 35.9
Temperature (C) 40.2

View Raw Data »

View Raw Plots »